Hourly Data Report for October 01, 2017

All times are specified in Local Standard Time (LST). Add 1 hour to adjust for Daylight Saving Time where and when it is observed.

TADOULE LAKE
MANITOBA

58°42'22.000" N
98°30'44.000" W
281.30 m
5062835
71272
YBQ

Download Data

Hourly Data (October 2017)
Hourly Data Report for October 1, 2017
Temp Definition
°C
Dew Point Temp Definition
°C
Rel Hum Definition
%
Wind Dir Definition
10's deg

Wind Spd Definition
km/h
Visibility Definition
km
Stn Press Definition
kPa
Hmdx Definition


Wind Chill Definition


Weather Definition


TIME
00:00 Legend Double Dagger 4.2 3.6 96 12 30 16.1 97.73     LegendNANA
01:00 Legend Double Dagger 4.3 4.0 98 12 28 16.1 97.72     LegendNANA
02:00 Legend Double Dagger 4.2 4.1 99 12 26 16.1 97.71     LegendNANA
03:00 Legend Double Dagger 4.2 4.2 100 12 22 14.5 97.69     LegendNANA
04:00 Legend Double Dagger 4.0 4.0 100 12 30 11.3 97.68     LegendNANA
05:00 Legend Double Dagger 3.8 3.8 100 12 28 9.7 97.68     Fog
06:00 Legend Double Dagger 4.0 4.0 100 12 28 9.7 97.68     Fog
07:00 Legend Double Dagger 4.0 4.0 100 13 26 9.7 97.68     Fog
08:00 Legend Double Dagger 4.4 4.4 100 12 21 16.1 97.69     LegendNANA
09:00 Legend Double Dagger 4.8 4.7 99 13 22 16.1 97.68     Rain
10:00 Legend Double Dagger 5.1 5.0 99 12 22 16.1 97.70     Rain
11:00 Legend Double Dagger 5.4 5.3 99 12 18 16.1 97.68     Rain
12:00 Legend Double Dagger 5.9 5.6 98 12 18 16.1 97.66     LegendNANA
13:00 Legend Double Dagger 6.4 6.1 98 12 18 16.1 97.64     LegendNANA
14:00 Legend Double Dagger 6.6 6.3 98 12 17 16.1 97.64     Rain
15:00 Legend Double Dagger 7.0 6.7 98 12 17 16.1 97.61     Rain
16:00 Legend Double Dagger 7.5 7.1 97 11 18 16.1 97.59     LegendNANA
17:00 Legend Double Dagger 7.7 7.3 97 10 15 16.1 97.57     LegendNANA
18:00 Legend Double Dagger 7.8 7.4 97 11 15 12.9 97.56     Rain
19:00 Legend Double Dagger 7.9 7.3 96 11 17 16.1 97.55     LegendNANA
20:00 Legend Double Dagger 7.8 7.7 99 11 11 8.1 97.55     Rain,Fog
21:00 Legend Double Dagger 7.9 7.8 99 11 15 8.1 97.53     Rain,Fog
22:00 Legend Double Dagger 7.9 7.9 100 11 13 4.0 97.51     Rain,Fog
23:00 Legend Double Dagger 8.0 8.0 100 10 9 12.9 97.47     Rain

Notes on Data Quality.

Legend

  • E = Estimated
  • M = Missing
  • NA = Not Available
  • ‡ = Partner data that is not subject to review by the National Climate Archives
Date modified: